Погода в Лысых Горах

Россия / Саратовская область     51°32′43″N   44°50′04″E
темп.,
°C
ветер,
м/с
пор.,
м/с
влажн.,
%
обл.,
%
осадки,
мм/ч
давл.,
гПа
погр.,
м
24 июля, сб
сб2401:00+15сз22650 0.0 100911
04:00+14з22660 0.0 100911
07:00+16зюз246424 0.0 1010121
10:00+22зсз354916 0.0 1010840
13:00+22зсз674795 0.0 10111139
16:00+23сз6742100 0.0 10111268
19:00+21ссз47490 0.0 1013796
22:00+15ссз23650 0.0 101520
25 июля, вс
вс2501:00+13с34785 0.0 101756
04:00+12с35745 0.0 101879
07:00+14ссв35725 0.0 1020145
10:00+21св44480 0.0 10211038
13:00+23ссв333695 0.0 10212546
16:00+22сз4442100 0.0 1021878
19:00+22с344312 0.0 1022627
22:00+15ссв34630 0.0 102358
26 июля, пн
пн2601:00+14ссв22662 0.0 102413
04:00+13ссв33655 0.0 102424
07:00+15св24635 0.0 1025101
10:00+21с22420 0.0 1025981
13:00+24ссв233410 0.0 10242348
16:00+24всв543638 0.0 10231861
19:00+23св34400 0.0 1023858
22:00+17всв33530 0.0 102425
27 июля, вт
вт2701:00+15св11540 0.0 102410
04:00+13ссв12550 0.0 102410
07:00+16ссв22562 0.0 102478
10:00+22ссв33391 0.0 1024729
13:00+25ссв343024 0.0 10232581
16:00+27ссв342847 0.0 10212792
19:00+25св353772 0.0 1021418
22:00+19св22482 0.0 102115
28 июля, ср
ср2801:00+16ссз11571 0.0 102211
04:00+15с11625 0.0 102111
07:00+18сз12585 0.0 102160
10:00+25зсз23395 0.0 1020734
13:00+28сз2331100 0.0 10192953
16:00+26сз123895 0.0 1018807
19:00+25сз2441100 0.0 1017146
22:00+22с11480 0.0 101711